����������;��������(kVARh)
2019-06-03 00:00;0
2019-06-03 00:15;0,15
2019-06-03 00:30;0
2019-06-03 00:45;0
2019-06-03 01:00;0,55
2019-06-03 01:15;1,1
2019-06-03 01:30;1,75
2019-06-03 01:45;1,05
2019-06-03 02:00;1,5
2019-06-03 02:15;0,95
2019-06-03 02:30;0,1
2019-06-03 02:45;0,85
2019-06-03 03:00;1,05
2019-06-03 03:15;0,25
2019-06-03 03:30;0,9
2019-06-03 03:45;0,9
2019-06-03 04:00;1,65
2019-06-03 04:15;0,9
2019-06-03 04:30;1,4
2019-06-03 04:45;1,9
2019-06-03 05:00;2,1
2019-06-03 05:15;1,55
2019-06-03 05:30;1
2019-06-03 05:45;1,05
2019-06-03 06:00;1,1
2019-06-03 06:15;0,3
2019-06-03 06:30;0
2019-06-03 06:45;0
2019-06-03 07:00;0
2019-06-03 07:15;0
2019-06-03 07:30;21,25
2019-06-03 07:45;7,35
2019-06-03 08:00;2,55
2019-06-03 08:15;0,8
2019-06-03 08:30;3,95
2019-06-03 08:45;3,9
2019-06-03 09:00;7,8
2019-06-03 09:15;11,25
2019-06-03 09:30;17,75
2019-06-03 09:45;18,5
2019-06-03 10:00;30
2019-06-03 10:15;34,4
2019-06-03 10:30;35,45
2019-06-03 10:45;38,3
2019-06-03 11:00;33,4
2019-06-03 11:15;32,95
2019-06-03 11:30;37,2
2019-06-03 11:45;34,9
2019-06-03 12:00;37,25
2019-06-03 12:15;35,85
2019-06-03 12:30;39,2
2019-06-03 12:45;37,35
2019-06-03 13:00;39,5
2019-06-03 13:15;42,2
2019-06-03 13:30;39,9
2019-06-03 13:45;37,1
2019-06-03 14:00;30,7
2019-06-03 14:15;33,1
2019-06-03 14:30;30,3
2019-06-03 14:45;37,25
2019-06-03 15:00;35,85
2019-06-03 15:15;35
2019-06-03 15:30;30,35
2019-06-03 15:45;26
2019-06-03 16:00;27,7
2019-06-03 16:15;20,8
2019-06-03 16:30;25,95
2019-06-03 16:45;25,05
2019-06-03 17:00;26,9
2019-06-03 17:15;23,75
2019-06-03 17:30;20,1
2019-06-03 17:45;27,25
2019-06-03 18:00;19,2
2019-06-03 18:15;20,45
2019-06-03 18:30;20,2
2019-06-03 18:45;20,4
2019-06-03 19:00;19,7
2019-06-03 19:15;20
2019-06-03 19:30;19,45
2019-06-03 19:45;16,6
2019-06-03 20:00;16,35
2019-06-03 20:15;16,4
2019-06-03 20:30;16,95
2019-06-03 20:45;13,95
2019-06-03 21:00;13,7
2019-06-03 21:15;14,4
2019-06-03 21:30;16,35
2019-06-03 21:45;14,5
2019-06-03 22:00;12,35
2019-06-03 22:15;7
2019-06-03 22:30;8,7
2019-06-03 22:45;9,1
2019-06-03 23:00;2,35
2019-06-03 23:15;4,85
2019-06-03 23:30;2,5
2019-06-03 23:45;1,7
2019-06-04 00:00;5
2019-06-04 00:15;8,75
2019-06-04 00:30;8,2
2019-06-04 00:45;9,1
2019-06-04 01:00;9,45
2019-06-04 01:15;12,1
2019-06-04 01:30;10,8
2019-06-04 01:45;9,45
2019-06-04 02:00;9,55
2019-06-04 02:15;10,5
2019-06-04 02:30;10,2
2019-06-04 02:45;10,85
2019-06-04 03:00;11
2019-06-04 03:15;10,95
2019-06-04 03:30;11,75
2019-06-04 03:45;11,8
2019-06-04 04:00;11,55
2019-06-04 04:15;12,55
2019-06-04 04:30;11,45
2019-06-04 04:45;9,45
2019-06-04 05:00;11,55
2019-06-04 05:15;11,4
2019-06-04 05:30;11,8
2019-06-04 05:45;11,25
2019-06-04 06:00;11,1
2019-06-04 06:15;9,45
2019-06-04 06:30;9,15
2019-06-04 06:45;9,05
2019-06-04 07:00;7,3
2019-06-04 07:15;5,9
2019-06-04 07:30;22,7
2019-06-04 07:45;4,1
2019-06-04 08:00;0,45
2019-06-04 08:15;4,65
2019-06-04 08:30;9,6
2019-06-04 08:45;11,3
2019-06-04 09:00;20,6
2019-06-04 09:15;17,2
2019-06-04 09:30;17,1
2019-06-04 09:45;21,55
2019-06-04 10:00;20,6
2019-06-04 10:15;21,4
2019-06-04 10:30;23,15
2019-06-04 10:45;13,15
2019-06-04 11:00;19,8
2019-06-04 11:15;28,45
2019-06-04 11:30;27,8
2019-06-04 11:45;29,45
2019-06-04 12:00;27,05
2019-06-04 12:15;26,1
2019-06-04 12:30;29
2019-06-04 12:45;29,2
2019-06-04 13:00;34,5
2019-06-04 13:15;27,1
2019-06-04 13:30;28,65
2019-06-04 13:45;25,35
2019-06-04 14:00;30
2019-06-04 14:15;27,8
2019-06-04 14:30;24,6
2019-06-04 14:45;30,45
2019-06-04 15:00;29,65
2019-06-04 15:15;31,15
2019-06-04 15:30;27,4
2019-06-04 15:45;24,3
2019-06-04 16:00;26,95
2019-06-04 16:15;23,4
2019-06-04 16:30;25,5
2019-06-04 16:45;19,85
2019-06-04 17:00;24,2
2019-06-04 17:15;18,9
2019-06-04 17:30;23,25
2019-06-04 17:45;18,1
2019-06-04 18:00;22,5
2019-06-04 18:15;15,7
2019-06-04 18:30;15,15
2019-06-04 18:45;11,75
2019-06-04 19:00;12,75
2019-06-04 19:15;13,45
2019-06-04 19:30;14,45
2019-06-04 19:45;13,3
2019-06-04 20:00;10,95
2019-06-04 20:15;10,45
2019-06-04 20:30;10,8
2019-06-04 20:45;10,55
2019-06-04 21:00;10,6
2019-06-04 21:15;12,1
2019-06-04 21:30;13,1
2019-06-04 21:45;10,95
2019-06-04 22:00;8,55
2019-06-04 22:15;6
2019-06-04 22:30;4,5
2019-06-04 22:45;4,9
2019-06-04 23:00;7,25
2019-06-04 23:15;7,7
2019-06-04 23:30;4,8
2019-06-04 23:45;1,95
2019-06-05 00:00;0,1
2019-06-05 00:15;0,25
2019-06-05 00:30;0,4
2019-06-05 00:45;1,05
2019-06-05 01:00;1,65
2019-06-05 01:15;1,15
2019-06-05 01:30;1,9
2019-06-05 01:45;2,35
2019-06-05 02:00;2,65
2019-06-05 02:15;1,5
2019-06-05 02:30;1,7
2019-06-05 02:45;0,5
2019-06-05 03:00;0,9
2019-06-05 03:15;0,9
2019-06-05 03:30;2,4
2019-06-05 03:45;1,75
2019-06-05 04:00;1,6
2019-06-05 04:15;1,7
2019-06-05 04:30;2,25
2019-06-05 04:45;2,4
2019-06-05 05:00;4,05
2019-06-05 05:15;4,35
2019-06-05 05:30;5,6
2019-06-05 05:45;5,7
2019-06-05 06:00;4,9
2019-06-05 06:15;3,2
2019-06-05 06:30;2,7
2019-06-05 06:45;3,25
2019-06-05 07:00;3,4
2019-06-05 07:15;3,35
2019-06-05 07:30;35,05
2019-06-05 07:45;13,6
2019-06-05 08:00;11,75
2019-06-05 08:15;6,6
2019-06-05 08:30;13,9
2019-06-05 08:45;16,1
2019-06-05 09:00;16,6
2019-06-05 09:15;21,7
2019-06-05 09:30;20,95
2019-06-05 09:45;18,55
2019-06-05 10:00;24,8
2019-06-05 10:15;24,8
2019-06-05 10:30;34,5
2019-06-05 10:45;25,85
2019-06-05 11:00;30,75
2019-06-05 11:15;32,9
2019-06-05 11:30;32,2
2019-06-05 11:45;35,95
2019-06-05 12:00;33,15
2019-06-05 12:15;31,95
2019-06-05 12:30;27,55
2019-06-05 12:45;31,7
2019-06-05 13:00;32,75
2019-06-05 13:15;36,2
2019-06-05 13:30;36,05
2019-06-05 13:45;21,4
2019-06-05 14:00;36,1
2019-06-05 14:15;35,25
2019-06-05 14:30;32,7
2019-06-05 14:45;34,25
2019-06-05 15:00;30,85
2019-06-05 15:15;30,85
2019-06-05 15:30;30,5
2019-06-05 15:45;27,65
2019-06-05 16:00;26,55
2019-06-05 16:15;25,2
2019-06-05 16:30;23,55
2019-06-05 16:45;21,1
2019-06-05 17:00;19,7
2019-06-05 17:15;21,35
2019-06-05 17:30;21,55
2019-06-05 17:45;20,95
2019-06-05 18:00;19,4
2019-06-05 18:15;19,55
2019-06-05 18:30;25,05
2019-06-05 18:45;15,75
2019-06-05 19:00;16
2019-06-05 19:15;15,8
2019-06-05 19:30;17
2019-06-05 19:45;16,7
2019-06-05 20:00;15,4
2019-06-05 20:15;15,6
2019-06-05 20:30;12,35
2019-06-05 20:45;9,3
2019-06-05 21:00;11,1
2019-06-05 21:15;12,65
2019-06-05 21:30;12,7
2019-06-05 21:45;10,9
2019-06-05 22:00;5,55
2019-06-05 22:15;1,7
2019-06-05 22:30;1,8
2019-06-05 22:45;1,3
2019-06-05 23:00;3
2019-06-05 23:15;2,5
2019-06-05 23:30;4,45
2019-06-05 23:45;2,4
2019-06-06 00:00;0,25
2019-06-06 00:15;0,85
2019-06-06 00:30;1,45
2019-06-06 00:45;0,5
2019-06-06 01:00;1,95
2019-06-06 01:15;2,3
2019-06-06 01:30;1,65
2019-06-06 01:45;1,85
2019-06-06 02:00;1,2
2019-06-06 02:15;1,45
2019-06-06 02:30;1
2019-06-06 02:45;0,1
2019-06-06 03:00;0,05
2019-06-06 03:15;0,2
2019-06-06 03:30;0,65
2019-06-06 03:45;0,7
2019-06-06 04:00;0,85
2019-06-06 04:15;0,4
2019-06-06 04:30;0,25
2019-06-06 04:45;0,65
2019-06-06 05:00;1,35
2019-06-06 05:15;6,75
2019-06-06 05:30;9
2019-06-06 05:45;9,15
2019-06-06 06:00;9,2
2019-06-06 06:15;7,05
2019-06-06 06:30;6,4
2019-06-06 06:45;4,35
2019-06-06 07:00;8,4
2019-06-06 07:15;7,15
2019-06-06 07:30;35,85
2019-06-06 07:45;20,3
2019-06-06 08:00;13,75
2019-06-06 08:15;13,85
2019-06-06 08:30;15,1
2019-06-06 08:45;20,9
2019-06-06 09:00;20,05
2019-06-06 09:15;25,3
2019-06-06 09:30;21,25
2019-06-06 09:45;28,95
2019-06-06 10:00;23,65
2019-06-06 10:15;21,35
2019-06-06 10:30;26,85
2019-06-06 10:45;28,05
2019-06-06 11:00;28,55
2019-06-06 11:15;29,75
2019-06-06 11:30;32,3
2019-06-06 11:45;33,45
2019-06-06 12:00;37,3
2019-06-06 12:15;35,65
2019-06-06 12:30;37,05
2019-06-06 12:45;36,85
2019-06-06 13:00;42,7
2019-06-06 13:15;35,15
2019-06-06 13:30;40,9
2019-06-06 13:45;34,9
2019-06-06 14:00;40
2019-06-06 14:15;37,4
2019-06-06 14:30;33,3
2019-06-06 14:45;34,7
2019-06-06 15:00;29,4
2019-06-06 15:15;34,5
2019-06-06 15:30;27,65
2019-06-06 15:45;34,35
2019-06-06 16:00;27,1
2019-06-06 16:15;32,9
2019-06-06 16:30;28,1
2019-06-06 16:45;32,05
2019-06-06 17:00;27,4
2019-06-06 17:15;23,4
2019-06-06 17:30;23,85
2019-06-06 17:45;23,4
2019-06-06 18:00;24,5
2019-06-06 18:15;21,7
2019-06-06 18:30;21,65
2019-06-06 18:45;17,4
2019-06-06 19:00;16,75
2019-06-06 19:15;18,2
2019-06-06 19:30;18,65
2019-06-06 19:45;17,15
2019-06-06 20:00;16,3
2019-06-06 20:15;15,8
2019-06-06 20:30;17,95
2019-06-06 20:45;15,5
2019-06-06 21:00;13,05
2019-06-06 21:15;12,7
2019-06-06 21:30;13,8
2019-06-06 21:45;12,65
2019-06-06 22:00;11,75
2019-06-06 22:15;9,55
2019-06-06 22:30;8,15
2019-06-06 22:45;5,1
2019-06-06 23:00;5,9
2019-06-06 23:15;4,95
2019-06-06 23:30;4,75
2019-06-06 23:45;9,25
2019-06-07 00:00;6,8
2019-06-07 00:15;7,05
2019-06-07 00:30;6,15
2019-06-07 00:45;6,85
2019-06-07 01:00;7,95
2019-06-07 01:15;6,85
2019-06-07 01:30;7,35
2019-06-07 01:45;1,85
2019-06-07 02:00;1,8
2019-06-07 02:15;2,5
2019-06-07 02:30;0,05
2019-06-07 02:45;0,3
2019-06-07 03:00;1,25
2019-06-07 03:15;1,65
2019-06-07 03:30;3,9
2019-06-07 03:45;3,3
2019-06-07 04:00;4,35
2019-06-07 04:15;3,8
2019-06-07 04:30;3,8
2019-06-07 04:45;3,8
2019-06-07 05:00;4,4
2019-06-07 05:15;5,15
2019-06-07 05:30;5,1
2019-06-07 05:45;5,45
2019-06-07 06:00;4,65
2019-06-07 06:15;4,25
2019-06-07 06:30;2,5
2019-06-07 06:45;2,65
2019-06-07 07:00;5
2019-06-07 07:15;5,2
2019-06-07 07:30;37,25
2019-06-07 07:45;20,85
2019-06-07 08:00;7,25
2019-06-07 08:15;11,65
2019-06-07 08:30;17,55
2019-06-07 08:45;17,6
2019-06-07 09:00;25,65
2019-06-07 09:15;26,65
2019-06-07 09:30;28,5
2019-06-07 09:45;35,05
2019-06-07 10:00;27,35
2019-06-07 10:15;31,85
2019-06-07 10:30;36,4
2019-06-07 10:45;29,55
2019-06-07 11:00;25,55
2019-06-07 11:15;28,15
2019-06-07 11:30;30,95
2019-06-07 11:45;35,05
2019-06-07 12:00;33,4
2019-06-07 12:15;31,8
2019-06-07 12:30;38,2
2019-06-07 12:45;41,3
2019-06-07 13:00;49,8
2019-06-07 13:15;54,25
2019-06-07 13:30;52,65
2019-06-07 13:45;48,6
2019-06-07 14:00;52,9
2019-06-07 14:15;53
2019-06-07 14:30;52,1
2019-06-07 14:45;45,25
2019-06-07 15:00;34,2
2019-06-07 15:15;30,15
2019-06-07 15:30;38,65
2019-06-07 15:45;38,7
2019-06-07 16:00;33,65
2019-06-07 16:15;38,3
2019-06-07 16:30;36,8
2019-06-07 16:45;29,25
2019-06-07 17:00;31,75
2019-06-07 17:15;38,95
2019-06-07 17:30;42,45
2019-06-07 17:45;35,2
2019-06-07 18:00;30,15
2019-06-07 18:15;20,15
2019-06-07 18:30;36,55
2019-06-07 18:45;20,85
2019-06-07 19:00;22,8
2019-06-07 19:15;20,45
2019-06-07 19:30;18,8
2019-06-07 19:45;17,65
2019-06-07 20:00;17,4
2019-06-07 20:15;16,1
2019-06-07 20:30;18,65
2019-06-07 20:45;19,25
2019-06-07 21:00;19,05
2019-06-07 21:15;17,05
2019-06-07 21:30;15,95
2019-06-07 21:45;8,85
2019-06-07 22:00;6,45
2019-06-07 22:15;3,05
2019-06-07 22:30;3,1
2019-06-07 22:45;3,5
2019-06-07 23:00;4,9
2019-06-07 23:15;6,6
2019-06-07 23:30;9,15
2019-06-07 23:45;9,9
2019-06-08 00:00;2,95
2019-06-08 00:15;2,15
2019-06-08 00:30;2,7
2019-06-08 00:45;3,95
2019-06-08 01:00;4,3
2019-06-08 01:15;3,9
2019-06-08 01:30;3,6
2019-06-08 01:45;4,6
2019-06-08 02:00;0,9
2019-06-08 02:15;0
2019-06-08 02:30;0,35
2019-06-08 02:45;0,35
2019-06-08 03:00;0,3
2019-06-08 03:15;0
2019-06-08 03:30;0
2019-06-08 03:45;0
2019-06-08 04:00;0
2019-06-08 04:15;0
2019-06-08 04:30;0
2019-06-08 04:45;0
2019-06-08 05:00;0
2019-06-08 05:15;0
2019-06-08 05:30;0
2019-06-08 05:45;0
2019-06-08 06:00;0
2019-06-08 06:15;0
2019-06-08 06:30;0
2019-06-08 06:45;0
2019-06-08 07:00;0
2019-06-08 07:15;0,9
2019-06-08 07:30;3,35
2019-06-08 07:45;3,8
2019-06-08 08:00;5,65
2019-06-08 08:15;6,65
2019-06-08 08:30;5,75
2019-06-08 08:45;5,15
2019-06-08 09:00;2,45
2019-06-08 09:15;0,8
2019-06-08 09:30;0,45
2019-06-08 09:45;0,75
2019-06-08 10:00;0,55
2019-06-08 10:15;0,85
2019-06-08 10:30;0,45
2019-06-08 10:45;0
2019-06-08 11:00;0
2019-06-08 11:15;0,15
2019-06-08 11:30;0,2
2019-06-08 11:45;0
2019-06-08 12:00;0
2019-06-08 12:15;0
2019-06-08 12:30;0,15
2019-06-08 12:45;1,55
2019-06-08 13:00;2,9
2019-06-08 13:15;2,65
2019-06-08 13:30;3,05
2019-06-08 13:45;3,6
2019-06-08 14:00;2,4
2019-06-08 14:15;4,45
2019-06-08 14:30;8,15
2019-06-08 14:45;8,7
2019-06-08 15:00;10,2
2019-06-08 15:15;13,2
2019-06-08 15:30;14,05
2019-06-08 15:45;15,65
2019-06-08 16:00;15,15
2019-06-08 16:15;14,9
2019-06-08 16:30;15,15
2019-06-08 16:45;13,9
2019-06-08 17:00;10,45
2019-06-08 17:15;9,3
2019-06-08 17:30;9,15
2019-06-08 17:45;8
2019-06-08 18:00;6,6
2019-06-08 18:15;6,85
2019-06-08 18:30;7,55
2019-06-08 18:45;7,2
2019-06-08 19:00;8,6
2019-06-08 19:15;6,55
2019-06-08 19:30;8,55
2019-06-08 19:45;9,8
2019-06-08 20:00;8,9
2019-06-08 20:15;9,5
2019-06-08 20:30;12,95
2019-06-08 20:45;12,9
2019-06-08 21:00;11,6
2019-06-08 21:15;10,25
2019-06-08 21:30;9,15
2019-06-08 21:45;8,25
2019-06-08 22:00;8,5
2019-06-08 22:15;5,25
2019-06-08 22:30;2,05
2019-06-08 22:45;1,4
2019-06-08 23:00;2,4
2019-06-08 23:15;1,4
2019-06-08 23:30;4,7
2019-06-08 23:45;9,65
2019-06-09 00:00;7,2
2019-06-09 00:15;7,05
2019-06-09 00:30;8,35
2019-06-09 00:45;5,25
2019-06-09 01:00;4,2
2019-06-09 01:15;5,2
2019-06-09 01:30;6,1
2019-06-09 01:45;2,7
2019-06-09 02:00;2,3
2019-06-09 02:15;1,9
2019-06-09 02:30;2,85
2019-06-09 02:45;2
2019-06-09 03:00;1,1
2019-06-09 03:15;1,6
2019-06-09 03:30;3,5
2019-06-09 03:45;3,05
2019-06-09 04:00;2,8
2019-06-09 04:15;4,5
2019-06-09 04:30;4,9
2019-06-09 04:45;4,6
2019-06-09 05:00;4,4
2019-06-09 05:15;4,8
2019-06-09 05:30;4,05
2019-06-09 05:45;3,7
2019-06-09 06:00;4,35
2019-06-09 06:15;3,85
2019-06-09 06:30;3,4
2019-06-09 06:45;3,55
2019-06-09 07:00;3,8
2019-06-09 07:15;2,2
2019-06-09 07:30;5,8
2019-06-09 07:45;4,15
2019-06-09 08:00;8,75
2019-06-09 08:15;11,15
2019-06-09 08:30;8,25
2019-06-09 08:45;3,1
2019-06-09 09:00;2,1
2019-06-09 09:15;3,9
2019-06-09 09:30;8,7
2019-06-09 09:45;7,45
2019-06-09 10:00;2,15
2019-06-09 10:15;1,35
2019-06-09 10:30;0,5
2019-06-09 10:45;1,55
2019-06-09 11:00;1,9
2019-06-09 11:15;1
2019-06-09 11:30;1,45
2019-06-09 11:45;1,15
2019-06-09 12:00;1,75
2019-06-09 12:15;1,85
2019-06-09 12:30;2
2019-06-09 12:45;1,85
2019-06-09 13:00;2,55
2019-06-09 13:15;2
2019-06-09 13:30;3,6
2019-06-09 13:45;5,1
2019-06-09 14:00;4,95
2019-06-09 14:15;5,85
2019-06-09 14:30;6,05
2019-06-09 14:45;5,95
2019-06-09 15:00;7,75
2019-06-09 15:15;4,8
2019-06-09 15:30;2,4
2019-06-09 15:45;4,3
2019-06-09 16:00;4,45
2019-06-09 16:15;5,05
2019-06-09 16:30;5,45
2019-06-09 16:45;5,9
2019-06-09 17:00;3,9
2019-06-09 17:15;2,7
2019-06-09 17:30;2,8
2019-06-09 17:45;3,95
2019-06-09 18:00;2,4
2019-06-09 18:15;2,75
2019-06-09 18:30;2,2
2019-06-09 18:45;5,9
2019-06-09 19:00;5,15
2019-06-09 19:15;5,95
2019-06-09 19:30;7,4
2019-06-09 19:45;7,7
2019-06-09 20:00;7,25
2019-06-09 20:15;7,4
2019-06-09 20:30;8,3
2019-06-09 20:45;6,95
2019-06-09 21:00;8
2019-06-09 21:15;8,05
2019-06-09 21:30;8
2019-06-09 21:45;3,95
2019-06-09 22:00;3,55
2019-06-09 22:15;3,05
2019-06-09 22:30;3,15
2019-06-09 22:45;2,85
2019-06-09 23:00;6,1
2019-06-09 23:15;4,95
2019-06-09 23:30;6,05
2019-06-09 23:45;2,65

